START_TIME,STEP,MOV.,H8,t_acc.,H43,t_acc.,M25,t_acc.,H9,t_acc.
1979-03-08 15:00:27.450 ,3,0,0.,12.0,0.,12.0,0.,12.0,0.,12.0
1979-03-08 15:00:39.450 ,3,0,0.,12.0,0.,12.0,0.,12.0,0.,12.0
1979-03-08 15:00:51.450 ,2,0,0.,12.0,0.,12.0,0.,12.0,0.,12.0
1979-03-08 15:01:03.450 ,2,0,0.,12.0,0.,12.0,0.,12.0,0.,12.0
1979-03-08 15:01:15.450 ,1,0,0.,12.0,0.,12.0,0.,12.0,0.,12.0
1979-03-08 15:01:27.450 ,1,0,0.,12.0,0.,12.0,0.,12.0,0.,12.0
1979-03-08 15:01:39.450 ,0,0,0.,12.0,0.,12.0,0.,12.0,0.,12.0
1979-03-08 15:01:51.450 ,0,0,0.,12.0,0.,12.0,0.,12.0,0.,12.0
1979-03-08 15:02:03.450 ,0,0,0.,12.0,0.,12.0,0.,12.0,0.,12.0
1979-03-08 15:02:15.450 ,0,0,0.,12.0,0.,12.0,0.,12.0,0.,12.0
1979-03-08 15:02:27.450 ,1,0,0.,12.0,0.,12.0,0.,12.0,0.,12.0
1979-03-08 15:02:39.450 ,1,0,0.,12.0,0.,12.0,0.,12.0,0.,12.0
1979-03-08 15:02:51.450 ,2,0,0.,12.0,0.,12.0,0.,12.0,0.,12.0
1979-03-08 15:03:03.450 ,2,0,0.,12.0,0.,12.0,0.,12.0,0.,12.0
1979-03-08 15:03:15.450 ,3,0,0.,12.0,0.,12.0,0.,12.0,0.,12.0
1979-03-08 15:03:27.450 ,3,0,0.,12.0,0.,12.0,0.,12.0,0.,12.0
1979-03-08 15:03:39.450 ,4,0,0.,12.0,0.,12.0,0.,12.0,0.,12.0
1979-03-08 15:03:51.450 ,4,0,0.,12.0,0.,12.0,0.,12.0,0.,12.0
1979-03-08 15:04:03.450 ,5,0,0.,12.0,0.,12.0,0.,12.0,0.,12.0
1979-03-08 15:04:15.450 ,5,0,0.,12.0,0.,12.0,0.,12.0,0.,12.0
1979-03-08 15:04:27.450 ,6,0,0.,12.0,0.,12.0,0.,12.0,0.,12.0
1979-03-08 15:04:39.450 ,6,0,0.,12.0,0.,12.0,0.,12.0,0.,12.0
1979-03-08 15:04:51.450 ,7,0,0.,12.0,0.,12.0,0.,12.0,0.,12.0
1979-03-08 15:05:03.450 ,7,0,0.,12.0,0.,12.0,0.,12.0,0.,12.0
1979-03-08 15:05:15.450 ,7,0,0.,12.0,0.,12.0,0.,12.0,0.,12.0
1979-03-08 15:05:27.450 ,7,0,0.,12.0,0.,12.0,0.,12.0,0.,12.0
1979-03-08 15:05:39.450 ,6,0,0.,12.0,0.,12.0,0.,12.0,0.,12.0
1979-03-08 15:05:51.450 ,6,0,0.,12.0,0.,12.0,0.,12.0,0.,12.0
1979-03-08 15:06:03.450 ,5,0,0.,12.0,0.,12.0,0.,12.0,0.,12.0
1979-03-08 15:06:15.450 ,5,0,0.,12.0,0.,12.0,0.,12.0,0.,12.0
1979-03-08 15:06:27.450 ,4,0,0.,12.0,0.,12.0,0.,12.0,0.,12.0
1979-03-08 15:06:39.450 ,4,0,0.,12.0,0.,12.0,0.,12.0,0.,12.0
1979-03-08 15:06:51.450 ,3,0,0.,12.0,0.,12.0,0.,12.0,0.,12.0
1979-03-08 15:07:03.450 ,3,0,0.,12.0,0.,12.0,0.,12.0,0.,12.0
1979-03-08 15:07:15.450 ,2,0,0.,12.0,0.,12.0,0.,12.0,0.,12.0
1979-03-08 15:07:27.450 ,2,0,0.,12.0,0.,12.0,0.,12.0,0.,12.0
1979-03-08 15:07:39.450 ,1,0,0.,12.0,0.,12.0,0.,12.0,0.,12.0
1979-03-08 15:07:51.450 ,1,0,0.,12.0,0.,12.0,0.,12.0,0.,12.0
1979-03-08 15:08:03.450 ,0,0,0.,12.0,0.,12.0,0.,12.0,0.,12.0
1979-03-08 15:08:15.450 ,0,0,0.,12.0,0.,12.0,0.,12.0,0.,12.0
1979-03-08 15:08:27.450 ,0,0,0.,12.0,0.,12.0,0.,12.0,0.,12.0
1979-03-08 15:08:39.450 ,0,0,0.,12.0,0.,12.0,0.,12.0,0.,12.0
1979-03-08 15:08:51.450 ,1,0,0.,12.0,0.,12.0,0.,12.0,0.,12.0
1979-03-08 15:09:03.450 ,1,0,0.,12.0,0.,12.0,0.,12.0,0.,12.0
1979-03-08 15:09:15.450 ,2,0,0.,12.0,0.,12.0,0.,12.0,0.,12.0
1979-03-08 15:09:27.450 ,2,0,0.,12.0,0.,12.0,0.,12.0,0.,12.0
1979-03-08 15:09:39.450 ,3,0,0.,12.0,0.,12.0,0.,12.0,0.,12.0
1979-03-08 15:09:51.450 ,3,0,0.,12.0,0.,12.0,0.,12.0,0.,12.0
1979-03-08 15:10:03.450 ,4,0,0.,12.0,0.,12.0,0.,12.0,0.,12.0
1979-03-08 15:10:15.450 ,4,0,0.,12.0,0.,12.0,0.,12.0,0.,12.0
1979-03-08 15:10:27.450 ,5,0,0.,12.0,0.,12.0,0.,12.0,0.,12.0
1979-03-08 15:10:39.450 ,5,0,0.,12.0,0.,12.0,0.,12.0,0.,12.0
1979-03-08 15:10:51.450 ,6,0,0.,12.0,0.,12.0,0.,12.0,0.,12.0
1979-03-08 15:11:03.450 ,6,0,0.,12.0,0.,12.0,0.,12.0,0.,12.0
1979-03-08 15:11:15.450 ,7,0,0.,12.0,0.,12.0,0.,12.0,0.,12.0
1979-03-08 15:11:27.450 ,7,0,0.,12.0,0.,12.0,0.,12.0,0.,12.0
1979-03-08 15:11:39.450 ,7,0,0.,12.0,0.,12.0,0.,12.0,0.,12.0
1979-03-08 15:11:51.450 ,7,0,0.,12.0,0.,12.0,0.,12.0,0.,12.0
1979-03-08 15:12:03.450 ,6,0,0.,12.0,0.,12.0,0.,12.0,0.,12.0
1979-03-08 15:12:15.450 ,6,0,0.,12.0,0.,12.0,0.,12.0,0.,12.0
1979-03-08 15:12:27.450 ,5,0,0.,12.0,0.,12.0,0.,12.0,0.,12.0
1979-03-08 15:12:39.450 ,5,0,0.,12.0,0.,12.0,0.,12.0,0.,12.0
1979-03-08 15:12:51.450 ,4,0,0.,12.0,0.,12.0,0.,12.0,0.,12.0
1979-03-08 15:13:03.450 ,4,0,0.,12.0,0.,12.0,0.,12.0,0.,12.0
1979-03-08 15:13:15.450 ,3,0,0.,12.0,0.,12.0,0.,12.0,0.,12.0
1979-03-08 15:13:27.450 ,3,0,0.,12.0,0.,12.0,0.,12.0,0.,12.0
1979-03-08 15:13:39.450 ,2,0,0.,12.0,0.,12.0,0.,12.0,0.,12.0
1979-03-08 15:13:51.450 ,2,0,0.,12.0,0.,12.0,0.,12.0,0.,12.0
1979-03-08 15:14:03.450 ,1,0,0.,12.0,0.,12.0,0.,12.0,0.,12.0
1979-03-08 15:14:15.450 ,1,0,0.,12.0,0.,12.0,0.,12.0,0.,12.0
1979-03-08 15:14:27.450 ,0,0,0.,12.0,0.,12.0,0.,12.0,0.,12.0
1979-03-08 15:14:39.450 ,0,0,0.,12.0,0.,12.0,0.,12.0,0.,12.0
1979-03-08 15:14:51.450 ,0,0,0.,12.0,0.,12.0,0.,12.0,0.,12.0
1979-03-08 15:15:03.450 ,0,0,0.,12.0,0.,12.0,0.,12.0,0.,12.0
1979-03-08 15:15:15.450 ,1,0,0.,12.0,0.,12.0,0.,12.0,0.,12.0
1979-03-08 15:15:27.450 ,1,0,0.,12.0,0.,12.0,0.,12.0,0.,12.0
1979-03-08 15:15:39.450 ,2,0,0.,12.0,0.,12.0,0.,12.0,0.,12.0
1979-03-08 15:15:51.450 ,2,0,0.,12.0,0.,12.0,0.,12.0,0.,12.0
1979-03-08 15:16:03.460 ,3,0,0.,12.0,0.,12.0,0.,12.0,0.,12.0
1979-03-08 15:16:15.460 ,3,0,0.,12.0,0.,12.0,0.,12.0,0.,12.0
1979-03-08 15:16:27.460 ,4,0,0.,12.0,0.,12.0,0.,12.0,0.,12.0
1979-03-08 15:16:39.460 ,4,0,0.,12.0,0.,12.0,0.,12.0,0.,12.0
1979-03-08 15:16:51.460 ,5,0,0.,12.0,0.,12.0,0.,12.0,0.,12.0
1979-03-08 15:17:03.460 ,5,0,0.,12.0,0.,12.0,0.,12.0,0.,12.0
1979-03-08 15:17:15.450 ,6,0,0.,12.0,0.,12.0,0.,12.0,0.,12.0
1979-03-08 15:17:27.450 ,6,0,0.,12.0,0.,12.0,0.,12.0,0.,12.0
1979-03-08 15:17:39.450 ,7,0,0.,12.0,0.,12.0,0.,12.0,0.,12.0
1979-03-08 15:17:51.450 ,7,0,0.,12.0,0.,12.0,0.,12.0,0.,12.0
1979-03-08 15:18:03.450 ,7,0,0.,12.0,0.,12.0,0.,12.0,0.,12.0
1979-03-08 15:18:15.450 ,7,0,0.,12.0,0.,12.0,0.,12.0,0.,12.0
1979-03-08 15:18:27.450 ,6,0,0.,12.0,0.,12.0,0.,12.0,0.,12.0
1979-03-08 15:18:39.450 ,6,0,0.,12.0,0.,12.0,0.,12.0,0.,12.0
1979-03-08 15:18:51.450 ,5,0,0.,12.0,0.,12.0,0.,12.0,0.,12.0
1979-03-08 15:19:03.450 ,5,0,0.,12.0,0.,12.0,0.,12.0,0.,12.0
1979-03-08 15:19:15.450 ,4,0,0.,12.0,0.,12.0,0.,12.0,0.,12.0
1979-03-08 15:19:27.450 ,4,0,0.,12.0,0.,12.0,0.,12.0,0.,12.0
1979-03-08 15:19:39.450 ,3,0,0.,12.0,0.,12.0,0.,12.0,0.,12.0
1979-03-08 15:19:51.450 ,3,0,0.,12.0,0.,12.0,0.,12.0,0.,12.0
1979-03-08 15:20:03.450 ,2,0,0.,12.0,0.,12.0,0.,12.0,0.,12.0
1979-03-08 15:20:15.450 ,2,0,0.,12.0,0.,12.0,0.,12.0,0.,12.0
1979-03-08 15:20:27.450 ,1,0,0.,12.0,0.,12.0,0.,12.0,0.,12.0
1979-03-08 15:20:39.450 ,1,0,0.,12.0,0.,12.0,0.,12.0,0.,12.0
1979-03-08 15:20:51.450 ,0,0,0.,12.0,0.,12.0,0.,12.0,0.,12.0
1979-03-08 15:21:03.450 ,0,0,0.,12.0,0.,12.0,0.,12.0,0.,12.0
1979-03-08 15:21:15.450 ,0,0,0.,12.0,0.,12.0,0.,12.0,0.,12.0
1979-03-08 15:21:27.450 ,0,0,0.,12.0,0.,12.0,0.,12.0,0.,12.0
1979-03-08 15:21:39.450 ,1,0,0.,12.0,0.,12.0,0.,12.0,0.,12.0
1979-03-08 15:21:51.450 ,1,0,0.,12.0,0.,12.0,0.,12.0,0.,12.0
1979-03-08 15:22:03.450 ,2,0,0.,12.0,0.,12.0,0.,12.0,0.,12.0
1979-03-08 15:22:15.450 ,2,0,0.,12.0,0.,12.0,0.,12.0,0.,12.0
1979-03-08 15:22:27.450 ,3,0,0.,12.0,0.,12.0,0.,12.0,0.,12.0
1979-03-08 15:22:39.450 ,3,0,0.,12.0,0.,12.0,0.,12.0,0.,12.0
1979-03-08 15:22:51.450 ,4,0,0.,12.0,0.,12.0,0.,12.0,0.,12.0
1979-03-08 15:23:03.450 ,4,0,0.,12.0,0.,12.0,0.,12.0,0.,12.0
1979-03-08 15:23:15.450 ,5,0,0.,12.0,0.,12.0,0.,12.0,0.,12.0
1979-03-08 15:23:27.450 ,5,0,0.,12.0,0.,12.0,0.,12.0,0.,12.0
1979-03-08 15:23:39.450 ,6,0,0.,12.0,0.,12.0,0.,12.0,0.,12.0
1979-03-08 15:23:51.450 ,6,0,0.,12.0,0.,12.0,0.,12.0,0.,12.0
1979-03-08 15:24:03.460 ,7,0,0.,12.0,0.,12.0,0.,12.0,0.,12.0
1979-03-08 15:24:15.460 ,7,0,0.,12.0,0.,12.0,0.,12.0,0.,12.0
1979-03-08 15:24:27.460 ,7,0,0.,12.0,0.,12.0,0.,12.0,0.,12.0
1979-03-08 15:24:39.460 ,7,0,0.,12.0,0.,12.0,0.,12.0,0.,12.0
1979-03-08 15:24:51.460 ,6,0,0.,12.0,0.,12.0,0.,12.0,0.,12.0
1979-03-08 15:25:03.460 ,6,0,0.,12.0,0.,12.0,0.,12.0,0.,12.0
1979-03-08 15:25:15.460 ,5,0,0.,12.0,0.,12.0,0.,12.0,0.,12.0
1979-03-08 15:25:27.460 ,5,0,0.,12.0,0.,12.0,0.,12.0,0.,12.0
1979-03-08 15:25:39.460 ,4,0,0.,12.0,0.,12.0,0.,12.0,0.,12.0
1979-03-08 15:25:51.460 ,4,0,0.,12.0,0.,12.0,0.,12.0,0.,12.0
1979-03-08 15:26:03.460 ,3,0,0.,12.0,0.,12.0,0.,12.0,0.,12.0
1979-03-08 15:26:15.460 ,3,0,0.,12.0,0.,12.0,0.,12.0,0.,12.0
1979-03-08 15:26:27.460 ,2,0,0.,12.0,0.,12.0,0.,12.0,0.,12.0
1979-03-08 15:26:39.460 ,2,0,0.,12.0,0.,12.0,0.,12.0,0.,12.0
1979-03-08 15:26:51.460 ,1,0,0.,12.0,0.,12.0,0.,12.0,0.,12.0
1979-03-08 15:27:03.460 ,1,0,0.,12.0,0.,12.0,0.,12.0,0.,12.0
1979-03-08 15:27:15.460 ,1,1,,0,,0,,0,,0
1979-03-08 15:27:27.460 ,1,1,,0,,0,,0,,0
1979-03-08 15:27:39.460 ,0,0,0.,12.0,0.,12.0,0.,12.0,0.,12.0
1979-03-08 15:27:51.460 ,0,0,0.,12.0,0.,12.0,0.,12.0,0.,12.0
1979-03-08 15:28:03.460 ,1,0,0.,12.0,0.,12.0,0.,12.0,0.,12.0
1979-03-08 15:28:15.460 ,1,0,0.,12.0,0.,12.0,0.,12.0,0.,12.0
1979-03-08 15:28:27.460 ,2,0,0.,12.0,0.,12.0,0.,12.0,0.,12.0
1979-03-08 15:28:39.460 ,2,0,0.,12.0,0.,12.0,0.,12.0,0.,12.0
1979-03-08 15:28:51.460 ,3,0,0.,12.0,0.,12.0,0.,12.0,0.,12.0
1979-03-08 15:29:03.460 ,3,0,0.,12.0,0.,12.0,0.,12.0,0.,12.0
1979-03-08 15:29:15.460 ,4,0,0.,12.0,0.,12.0,0.,12.0,0.,12.0
1979-03-08 15:29:27.460 ,4,0,0.,12.0,0.,12.0,0.,12.0,0.,12.0
1979-03-08 15:29:39.460 ,5,0,0.,12.0,0.,12.0,0.,12.0,0.,12.0
1979-03-08 15:29:51.460 ,5,0,0.,12.0,0.,12.0,0.,12.0,0.,12.0
1979-03-08 15:30:03.460 ,6,0,0.,12.0,0.,12.0,0.,12.0,0.,12.0
1979-03-08 15:30:15.460 ,6,0,0.,12.0,0.,12.0,0.,12.0,0.,12.0
1979-03-08 15:30:27.460 ,7,0,0.,12.0,0.,12.0,0.,12.0,0.,12.0
1979-03-08 15:30:39.460 ,7,0,0.,12.0,0.,12.0,0.,12.0,0.,12.0
1979-03-08 15:30:51.460 ,7,0,0.,12.0,0.,12.0,0.,12.0,0.,12.0
1979-03-08 15:31:03.460 ,7,0,0.,12.0,0.,12.0,0.,12.0,0.,12.0
1979-03-08 15:31:15.460 ,6,0,0.,12.0,0.,12.0,0.,12.0,0.,12.0
1979-03-08 15:31:27.460 ,6,0,0.,12.0,0.,12.0,0.,12.0,0.,12.0
1979-03-08 15:31:39.460 ,5,0,0.,12.0,0.,12.0,0.,12.0,0.,12.0
1979-03-08 15:31:51.460 ,5,0,0.,12.0,0.,12.0,0.,12.0,0.,12.0
1979-03-08 15:32:03.460 ,4,0,0.,12.0,0.,12.0,0.,12.0,0.,12.0
1979-03-08 15:32:15.460 ,4,0,1.,12.0,0.,12.0,0.,12.0,0.,12.0
1979-03-08 15:32:27.460 ,3,0,0.,12.0,0.,12.0,0.,12.0,0.,12.0
1979-03-08 15:32:39.460 ,3,0,0.,12.0,0.,12.0,0.,12.0,0.,12.0
1979-03-08 15:32:51.460 ,2,0,0.,12.0,0.,12.0,0.,12.0,0.,12.0
1979-03-08 15:33:03.460 ,2,0,0.,12.0,0.,12.0,0.,12.0,0.,12.0
1979-03-08 15:33:15.460 ,1,0,0.,12.0,0.,12.0,0.,12.0,0.,12.0
1979-03-08 15:33:27.460 ,1,0,0.,12.0,0.,12.0,0.,12.0,0.,12.0
1979-03-08 15:33:39.460 ,0,0,0.,12.0,0.,12.0,0.,12.0,0.,12.0
1979-03-08 15:33:51.460 ,0,0,0.,12.0,0.,12.0,0.,12.0,0.,12.0
1979-03-08 15:34:03.460 ,0,0,0.,12.0,0.,12.0,0.,12.0,0.,12.0
1979-03-08 15:34:15.460 ,0,0,0.,12.0,0.,12.0,0.,12.0,0.,12.0
1979-03-08 15:34:27.460 ,1,0,0.,12.0,0.,12.0,0.,12.0,0.,12.0
1979-03-08 15:34:39.460 ,1,0,0.,12.0,0.,12.0,0.,12.0,0.,12.0
1979-03-08 15:34:51.460 ,2,0,0.,12.0,0.,12.0,0.,12.0,0.,12.0
1979-03-08 15:35:03.460 ,2,0,1.,12.0,0.,12.0,0.,12.0,0.,12.0
1979-03-08 15:35:15.460 ,3,0,0.,12.0,0.,12.0,0.,12.0,0.,12.0
1979-03-08 15:35:27.460 ,3,0,2.,12.0,0.,12.0,0.,12.0,0.,12.0
1979-03-08 15:35:39.460 ,4,0,3.,12.0,0.,12.0,0.,12.0,0.,12.0
1979-03-08 15:35:51.460 ,4,0,21.,12.0,0.,12.0,0.,12.0,0.,12.0
1979-03-08 15:36:03.460 ,5,0,15.,12.0,0.,12.0,0.,12.0,0.,12.0
1979-03-08 15:36:15.460 ,5,0,8.,12.0,0.,12.0,0.,12.0,0.,12.0
1979-03-08 15:36:27.460 ,6,0,3.,12.0,0.,12.0,0.,12.0,0.,12.0
1979-03-08 15:36:39.460 ,6,0,0.,12.0,0.,12.0,0.,12.0,0.,12.0
1979-03-08 15:36:51.460 ,7,0,0.,12.0,0.,12.0,0.,12.0,0.,12.0
1979-03-08 15:37:03.460 ,7,0,0.,12.0,0.,12.0,0.,12.0,0.,12.0
1979-03-08 15:37:15.460 ,7,0,0.,12.0,0.,12.0,0.,12.0,0.,12.0
1979-03-08 15:37:27.460 ,7,0,0.,12.0,0.,12.0,0.,12.0,0.,12.0
1979-03-08 15:37:39.460 ,6,0,0.,12.0,0.,12.0,0.,12.0,0.,12.0
1979-03-08 15:37:51.460 ,6,0,0.,12.0,0.,12.0,0.,12.0,0.,12.0
1979-03-08 15:38:03.460 ,5,0,1.,12.0,0.,12.0,0.,12.0,0.,12.0
1979-03-08 15:38:15.460 ,5,0,6.,12.0,0.,12.0,0.,12.0,0.,12.0
1979-03-08 15:38:27.460 ,4,0,1.,12.0,0.,12.0,0.,12.0,0.,12.0
1979-03-08 15:38:39.460 ,4,0,9.,12.0,0.,12.0,0.,12.0,0.,12.0
1979-03-08 15:38:51.460 ,3,0,21.,12.0,0.,12.0,0.,12.0,0.,12.0
1979-03-08 15:39:03.460 ,3,0,9.,12.0,0.,12.0,0.,12.0,0.,12.0
1979-03-08 15:39:15.460 ,2,0,11.,12.0,0.,12.0,0.,12.0,0.,12.0
1979-03-08 15:39:27.460 ,2,0,0.,12.0,0.,12.0,0.,12.0,0.,12.0
1979-03-08 15:39:39.460 ,1,0,0.,12.0,0.,12.0,0.,12.0,0.,12.0
1979-03-08 15:39:51.460 ,1,0,0.,12.0,0.,12.0,0.,12.0,0.,12.0
1979-03-08 15:40:03.460 ,0,0,0.,12.0,0.,12.0,0.,12.0,0.,12.0
1979-03-08 15:40:15.460 ,0,0,0.,12.0,0.,12.0,0.,12.0,0.,12.0
1979-03-08 15:40:27.460 ,0,0,0.,12.0,0.,12.0,0.,12.0,0.,12.0
1979-03-08 15:40:39.460 ,0,0,0.,12.0,0.,12.0,0.,12.0,0.,12.0
1979-03-08 15:40:51.460 ,1,0,0.,12.0,0.,12.0,0.,12.0,0.,12.0
1979-03-08 15:41:03.460 ,1,0,0.,12.0,0.,12.0,0.,12.0,0.,12.0
1979-03-08 15:41:15.460 ,2,0,0.,12.0,0.,12.0,0.,12.0,0.,12.0
1979-03-08 15:41:27.460 ,2,0,0.,12.0,0.,12.0,0.,12.0,0.,12.0
1979-03-08 15:41:39.460 ,3,0,0.,12.0,0.,12.0,0.,12.0,0.,12.0
1979-03-08 15:41:51.460 ,3,0,0.,12.0,0.,12.0,0.,12.0,0.,12.0
1979-03-08 15:42:03.460 ,4,0,1.,12.0,0.,12.0,0.,12.0,0.,12.0
1979-03-08 15:42:15.460 ,4,0,11.,12.0,0.,12.0,0.,12.0,0.,12.0
1979-03-08 15:42:27.460 ,5,0,10.,12.0,0.,12.0,0.,12.0,0.,12.0
1979-03-08 15:42:39.460 ,5,0,12.,12.0,0.,12.0,0.,12.0,0.,12.0
1979-03-08 15:42:51.460 ,6,0,2.,12.0,0.,12.0,0.,12.0,0.,12.0
1979-03-08 15:43:03.460 ,6,0,0.,12.0,0.,12.0,0.,12.0,0.,12.0
1979-03-08 15:43:15.460 ,7,0,0.,12.0,0.,12.0,0.,12.0,0.,12.0
1979-03-08 15:43:27.460 ,7,0,0.,12.0,0.,12.0,0.,12.0,0.,12.0
1979-03-08 15:43:39.460 ,7,0,0.,12.0,0.,12.0,0.,12.0,0.,12.0
1979-03-08 15:43:51.460 ,7,0,0.,12.0,0.,12.0,0.,12.0,0.,12.0
1979-03-08 15:44:03.460 ,6,0,0.,12.0,0.,12.0,0.,12.0,0.,12.0
1979-03-08 15:44:15.460 ,6,0,0.,12.0,0.,12.0,0.,12.0,0.,12.0
1979-03-08 15:44:27.460 ,5,0,0.,12.0,0.,12.0,0.,12.0,0.,12.0
1979-03-08 15:44:39.460 ,5,0,70.,12.0,0.,12.0,0.,12.0,0.,12.0
1979-03-08 15:44:51.460 ,4,0,51.,12.0,0.,12.0,0.,12.0,0.,12.0
1979-03-08 15:45:03.460 ,4,0,15.,12.0,0.,12.0,0.,12.0,0.,12.0
1979-03-08 15:45:15.460 ,3,0,128.,12.0,0.,12.0,0.,12.0,0.,12.0
1979-03-08 15:45:27.460 ,3,0,0.,12.0,0.,12.0,0.,12.0,0.,12.0
1979-03-08 15:45:39.460 ,2,0,0.,12.0,0.,12.0,0.,12.0,0.,12.0
1979-03-08 15:45:51.460 ,2,0,0.,12.0,0.,12.0,0.,12.0,0.,12.0
1979-03-08 15:46:03.460 ,1,0,0.,12.0,0.,12.0,0.,12.0,0.,12.0
1979-03-08 15:46:15.460 ,1,0,0.,12.0,0.,12.0,0.,12.0,0.,12.0
1979-03-08 15:46:27.460 ,0,0,0.,12.0,0.,12.0,0.,12.0,0.,12.0
1979-03-08 15:46:39.460 ,0,0,0.,12.0,0.,12.0,0.,12.0,0.,12.0
1979-03-08 15:46:51.460 ,0,0,0.,12.0,0.,12.0,0.,12.0,0.,12.0
1979-03-08 15:47:03.460 ,0,0,0.,12.0,0.,12.0,0.,12.0,0.,12.0
1979-03-08 15:47:15.460 ,1,0,0.,12.0,0.,12.0,0.,12.0,0.,12.0
1979-03-08 15:47:27.460 ,1,0,0.,12.0,0.,12.0,0.,12.0,0.,12.0
1979-03-08 15:47:39.460 ,2,0,0.,12.0,0.,12.0,0.,12.0,0.,12.0
1979-03-08 15:47:51.460 ,2,0,0.,12.0,0.,12.0,0.,12.0,0.,12.0
1979-03-08 15:48:03.460 ,3,0,0.,12.0,0.,12.0,0.,12.0,0.,12.0
1979-03-08 15:48:15.460 ,3,0,1.,12.0,0.,12.0,0.,12.0,0.,12.0
1979-03-08 15:48:27.460 ,4,0,0.,12.0,0.,12.0,0.,12.0,0.,12.0
1979-03-08 15:48:39.460 ,4,0,5.,12.0,0.,12.0,0.,12.0,0.,12.0
1979-03-08 15:48:51.460 ,5,0,4.,12.0,0.,12.0,0.,12.0,0.,12.0
1979-03-08 15:49:03.460 ,5,0,2.,12.0,0.,12.0,0.,12.0,0.,12.0
1979-03-08 15:49:15.460 ,6,0,3.,12.0,0.,12.0,0.,12.0,0.,12.0
1979-03-08 15:49:27.460 ,6,0,0.,12.0,0.,12.0,0.,12.0,0.,12.0
1979-03-08 15:49:39.460 ,7,0,0.,12.0,0.,12.0,0.,12.0,0.,12.0
1979-03-08 15:49:51.460 ,7,0,0.,12.0,0.,12.0,0.,12.0,0.,12.0
1979-03-08 15:50:03.460 ,7,0,0.,12.0,0.,12.0,0.,12.0,0.,12.0
1979-03-08 15:50:15.460 ,7,0,0.,12.0,0.,12.0,0.,12.0,0.,12.0
1979-03-08 15:50:27.460 ,6,0,0.,12.0,0.,12.0,0.,12.0,0.,12.0
1979-03-08 15:50:39.460 ,6,0,0.,12.0,0.,12.0,0.,12.0,0.,12.0
1979-03-08 15:50:51.460 ,5,0,2.,12.0,0.,12.0,0.,12.0,0.,12.0
1979-03-08 15:51:03.460 ,5,0,15.,12.0,0.,12.0,0.,12.0,0.,12.0
1979-03-08 15:51:15.460 ,4,0,7.,12.0,0.,12.0,0.,12.0,0.,12.0
1979-03-08 15:51:27.460 ,4,0,0.,12.0,0.,12.0,0.,12.0,0.,12.0
1979-03-08 15:51:39.460 ,3,0,0.,12.0,0.,12.0,0.,12.0,0.,12.0
1979-03-08 15:51:51.460 ,3,0,0.,12.0,0.,12.0,0.,12.0,0.,12.0
1979-03-08 15:52:03.460 ,2,0,0.,12.0,0.,12.0,0.,12.0,0.,12.0
1979-03-08 15:52:15.460 ,2,0,0.,12.0,0.,12.0,0.,12.0,0.,12.0
1979-03-08 15:52:27.460 ,1,0,0.,12.0,0.,12.0,0.,12.0,0.,12.0
1979-03-08 15:52:39.460 ,1,0,0.,12.0,0.,12.0,0.,12.0,0.,12.0
1979-03-08 15:52:51.460 ,0,0,0.,12.0,0.,12.0,0.,12.0,0.,12.0
1979-03-08 15:53:03.460 ,0,0,0.,12.0,0.,12.0,0.,12.0,0.,12.0
1979-03-08 15:53:15.460 ,0,0,0.,12.0,0.,12.0,0.,12.0,0.,12.0
1979-03-08 15:53:27.460 ,0,0,0.,12.0,0.,12.0,0.,12.0,0.,12.0
1979-03-08 15:53:39.460 ,1,0,0.,12.0,0.,12.0,0.,12.0,0.,12.0
1979-03-08 15:53:51.460 ,1,0,0.,12.0,0.,12.0,0.,12.0,0.,12.0
1979-03-08 15:54:03.460 ,2,0,0.,12.0,0.,12.0,0.,12.0,0.,12.0
1979-03-08 15:54:15.460 ,2,0,0.,12.0,0.,12.0,0.,12.0,0.,12.0
1979-03-08 15:54:27.460 ,3,0,0.,12.0,0.,12.0,0.,12.0,0.,12.0
1979-03-08 15:54:39.460 ,3,0,0.,12.0,0.,12.0,0.,12.0,0.,12.0
1979-03-08 15:54:51.460 ,4,0,0.,12.0,0.,12.0,0.,12.0,0.,12.0
1979-03-08 15:55:03.460 ,4,0,0.,12.0,0.,12.0,0.,12.0,0.,12.0
1979-03-08 15:55:15.460 ,5,0,1.,12.0,0.,12.0,0.,12.0,0.,12.0
1979-03-08 15:55:27.460 ,5,0,5.,12.0,0.,12.0,0.,12.0,0.,12.0
1979-03-08 15:55:39.460 ,6,0,9.,12.0,1.,12.0,0.,12.0,0.,12.0
1979-03-08 15:55:51.460 ,6,0,1.,12.0,0.,12.0,0.,12.0,0.,12.0
1979-03-08 15:56:03.460 ,7,0,0.,12.0,0.,12.0,0.,12.0,0.,12.0
1979-03-08 15:56:15.460 ,7,0,0.,12.0,0.,12.0,0.,12.0,0.,12.0
1979-03-08 15:56:27.460 ,7,0,0.,12.0,0.,12.0,0.,12.0,0.,12.0
1979-03-08 15:56:39.460 ,7,0,0.,12.0,0.,12.0,0.,12.0,0.,12.0
1979-03-08 15:56:51.460 ,6,0,0.,12.0,0.,12.0,0.,12.0,0.,12.0
1979-03-08 15:57:03.460 ,6,0,0.,12.0,0.,12.0,0.,12.0,0.,12.0
1979-03-08 15:57:15.460 ,5,0,3.,12.0,0.,12.0,0.,12.0,0.,12.0
1979-03-08 15:57:27.460 ,5,0,14.,12.0,0.,12.0,0.,12.0,0.,12.0
1979-03-08 15:57:39.460 ,4,0,8.,12.0,0.,12.0,0.,12.0,1.,12.0
1979-03-08 15:57:51.460 ,4,0,0.,12.0,0.,12.0,0.,12.0,0.,12.0
1979-03-08 15:58:03.460 ,3,0,0.,12.0,0.,12.0,0.,12.0,0.,12.0
1979-03-08 15:58:15.460 ,3,0,0.,12.0,0.,12.0,0.,12.0,0.,12.0
1979-03-08 15:58:27.460 ,2,0,0.,12.0,0.,12.0,0.,12.0,0.,12.0
1979-03-08 15:58:39.460 ,2,0,0.,12.0,0.,12.0,0.,12.0,0.,12.0
1979-03-08 15:58:51.460 ,1,0,1.,12.0,0.,12.0,0.,12.0,0.,12.0
1979-03-08 15:59:03.460 ,1,0,0.,12.0,0.,12.0,0.,12.0,0.,12.0
1979-03-08 15:59:15.460 ,0,0,0.,12.0,0.,12.0,0.,12.0,0.,12.0
1979-03-08 15:59:27.460 ,0,0,0.,12.0,0.,12.0,0.,12.0,0.,12.0
1979-03-08 15:59:39.460 ,0,0,0.,12.0,0.,12.0,0.,12.0,0.,12.0
1979-03-08 15:59:51.460 ,0,0,0.,12.0,0.,12.0,0.,12.0,0.,12.0
1979-03-08 16:00:03.460 ,1,0,0.,12.0,0.,12.0,0.,12.0,0.,12.0
1979-03-08 16:00:15.460 ,1,0,0.,12.0,0.,12.0,0.,12.0,0.,12.0
1979-03-08 16:00:27.460 ,2,0,0.,12.0,0.,12.0,0.,12.0,0.,12.0
1979-03-08 16:00:39.460 ,2,0,0.,12.0,0.,12.0,0.,12.0,0.,12.0
1979-03-08 16:00:51.460 ,3,0,0.,12.0,0.,12.0,0.,12.0,0.,12.0
1979-03-08 16:01:03.460 ,3,0,0.,12.0,0.,12.0,0.,12.0,0.,12.0
1979-03-08 16:01:15.460 ,4,0,,0,,0,,0,,0
1979-03-08 16:01:27.460 ,4,0,0.,12.0,0.,12.0,0.,12.0,0.,12.0
1979-03-08 16:01:39.460 ,5,0,0.,12.0,0.,12.0,0.,12.0,0.,12.0
1979-03-08 16:01:51.460 ,5,0,0.,12.0,0.,12.0,0.,12.0,0.,12.0
1979-03-08 16:02:03.460 ,6,0,0.,12.0,0.,12.0,0.,12.0,0.,12.0
1979-03-08 16:02:15.460 ,6,0,5.,12.0,0.,12.0,0.,12.0,0.,12.0
1979-03-08 16:02:27.460 ,7,0,1.,12.0,0.,12.0,0.,12.0,0.,12.0
1979-03-08 16:02:39.460 ,7,0,0.,12.0,0.,12.0,0.,12.0,0.,12.0
1979-03-08 16:02:51.460 ,7,0,0.,12.0,0.,12.0,0.,12.0,0.,12.0
1979-03-08 16:03:03.460 ,7,0,0.,12.0,0.,12.0,0.,12.0,0.,12.0
1979-03-08 16:03:15.460 ,6,0,0.,12.0,0.,12.0,0.,12.0,0.,12.0
1979-03-08 16:03:27.460 ,6,0,5.,12.0,0.,12.0,0.,12.0,0.,12.0
1979-03-08 16:03:39.460 ,5,0,5.,12.0,0.,12.0,0.,12.0,0.,12.0
1979-03-08 16:03:51.460 ,5,0,5.,12.0,0.,12.0,0.,12.0,0.,12.0
1979-03-08 16:04:03.460 ,4,0,0.,12.0,0.,12.0,0.,12.0,0.,12.0
1979-03-08 16:04:15.460 ,4,0,2.,12.0,0.,12.0,0.,12.0,0.,12.0
1979-03-08 16:04:27.460 ,3,0,3.,12.0,0.,12.0,0.,12.0,0.,12.0
1979-03-08 16:04:39.460 ,3,0,0.,12.0,0.,12.0,0.,12.0,0.,12.0
1979-03-08 16:04:51.460 ,2,0,2.,12.0,0.,12.0,0.,12.0,0.,12.0
1979-03-08 16:05:03.460 ,2,0,4.,12.0,0.,12.0,0.,12.0,0.,12.0
1979-03-08 16:05:15.460 ,1,0,1.,12.0,0.,12.0,0.,12.0,0.,12.0
1979-03-08 16:05:27.460 ,1,0,4.,12.0,0.,12.0,0.,12.0,0.,12.0
1979-03-08 16:05:39.460 ,0,0,1.,12.0,0.,12.0,0.,12.0,0.,12.0
1979-03-08 16:05:51.460 ,0,0,0.,12.0,0.,12.0,0.,12.0,0.,12.0
1979-03-08 16:06:03.460 ,0,0,0.,12.0,0.,12.0,0.,12.0,0.,12.0
1979-03-08 16:06:15.460 ,0,0,0.,12.0,0.,12.0,0.,12.0,0.,12.0
1979-03-08 16:06:27.460 ,1,0,0.,12.0,0.,12.0,0.,12.0,0.,12.0
1979-03-08 16:06:39.460 ,1,0,4.,12.0,0.,12.0,0.,12.0,0.,12.0
1979-03-08 16:06:51.460 ,2,0,6.,12.0,0.,12.0,0.,12.0,0.,12.0
1979-03-08 16:07:03.460 ,2,0,4.,12.0,0.,12.0,0.,12.0,0.,12.0
1979-03-08 16:07:15.460 ,3,0,3.,12.0,0.,12.0,0.,12.0,0.,12.0
1979-03-08 16:07:27.460 ,3,0,1.,12.0,0.,12.0,0.,12.0,0.,12.0
1979-03-08 16:07:39.460 ,4,0,2.,12.0,0.,12.0,0.,12.0,0.,12.0
1979-03-08 16:07:51.460 ,4,0,106.,12.0,0.,12.0,0.,12.0,0.,12.0
1979-03-08 16:08:03.460 ,5,0,84.,12.0,0.,12.0,0.,12.0,0.,12.0
1979-03-08 16:08:15.460 ,5,0,0.,12.0,0.,12.0,0.,12.0,0.,12.0
1979-03-08 16:08:27.460 ,6,0,1.,12.0,0.,12.0,0.,12.0,0.,12.0
1979-03-08 16:08:39.460 ,6,0,4.,12.0,0.,12.0,0.,12.0,0.,12.0
1979-03-08 16:08:51.460 ,7,0,4.,12.0,0.,12.0,0.,12.0,0.,12.0
1979-03-08 16:09:03.460 ,7,0,0.,12.0,0.,12.0,0.,12.0,0.,12.0
1979-03-08 16:09:15.460 ,7,0,0.,12.0,0.,12.0,0.,12.0,0.,12.0
1979-03-08 16:09:27.460 ,7,0,0.,12.0,0.,12.0,0.,12.0,0.,12.0
1979-03-08 16:09:39.460 ,6,0,0.,12.0,0.,12.0,0.,12.0,0.,12.0
1979-03-08 16:09:51.460 ,6,0,1.,12.0,0.,12.0,0.,12.0,0.,12.0
1979-03-08 16:10:03.460 ,5,0,1.,12.0,0.,12.0,0.,12.0,0.,12.0
1979-03-08 16:10:15.460 ,5,0,0.,12.0,0.,12.0,0.,12.0,0.,12.0
1979-03-08 16:10:27.460 ,4,0,1.,12.0,0.,12.0,0.,12.0,0.,12.0
1979-03-08 16:10:39.460 ,4,0,0.,12.0,0.,12.0,0.,12.0,0.,12.0
1979-03-08 16:10:51.460 ,3,0,0.,12.0,0.,12.0,0.,12.0,0.,12.0
1979-03-08 16:11:03.460 ,3,0,0.,12.0,0.,12.0,0.,12.0,0.,12.0
1979-03-08 16:11:15.460 ,2,0,2.,12.0,0.,12.0,0.,12.0,0.,12.0
1979-03-08 16:11:27.460 ,2,0,0.,12.0,0.,12.0,0.,12.0,0.,12.0
1979-03-08 16:11:39.460 ,1,0,0.,12.0,0.,12.0,0.,12.0,0.,12.0
1979-03-08 16:11:51.460 ,1,0,0.,12.0,0.,12.0,0.,12.0,0.,12.0
1979-03-08 16:12:03.460 ,0,0,0.,12.0,0.,12.0,0.,12.0,0.,12.0
1979-03-08 16:12:15.460 ,0,0,0.,12.0,0.,12.0,0.,12.0,0.,12.0
1979-03-08 16:12:27.460 ,0,0,1.,12.0,0.,12.0,0.,12.0,0.,12.0
1979-03-08 16:12:39.460 ,0,0,0.,12.0,0.,12.0,0.,12.0,0.,12.0
1979-03-08 16:12:51.460 ,1,0,0.,12.0,0.,12.0,0.,12.0,0.,12.0
1979-03-08 16:13:03.460 ,1,0,0.,12.0,0.,12.0,0.,12.0,0.,12.0
1979-03-08 16:13:15.460 ,2,0,0.,12.0,0.,12.0,0.,12.0,0.,12.0
1979-03-08 16:13:27.460 ,2,0,0.,12.0,0.,12.0,0.,12.0,0.,12.0
1979-03-08 16:13:39.460 ,3,0,0.,12.0,0.,12.0,0.,12.0,0.,12.0
1979-03-08 16:13:51.460 ,3,0,0.,12.0,0.,12.0,0.,12.0,0.,12.0
1979-03-08 16:14:03.460 ,4,0,1.,12.0,0.,12.0,0.,12.0,0.,12.0
1979-03-08 16:14:15.460 ,4,0,0.,12.0,0.,12.0,0.,12.0,0.,12.0
1979-03-08 16:14:27.460 ,5,0,1.,12.0,0.,12.0,0.,12.0,0.,12.0
1979-03-08 16:14:39.460 ,5,0,0.,12.0,0.,12.0,0.,12.0,0.,12.0
1979-03-08 16:14:51.460 ,6,0,0.,12.0,0.,12.0,0.,12.0,0.,12.0
1979-03-08 16:15:03.460 ,6,0,1.,12.0,0.,12.0,0.,12.0,0.,12.0
1979-03-08 16:15:15.460 ,7,0,3.,12.0,0.,12.0,0.,12.0,0.,12.0
1979-03-08 16:15:27.460 ,7,0,0.,12.0,0.,12.0,0.,12.0,0.,12.0
1979-03-08 16:15:39.460 ,7,0,0.,12.0,0.,12.0,0.,12.0,0.,12.0
1979-03-08 16:15:51.460 ,7,0,0.,12.0,0.,12.0,0.,12.0,0.,12.0
1979-03-08 16:16:03.460 ,6,0,0.,12.0,0.,12.0,0.,12.0,0.,12.0
1979-03-08 16:16:15.460 ,6,0,1.,12.0,0.,12.0,0.,12.0,0.,12.0
1979-03-08 16:16:27.460 ,5,0,1.,12.0,0.,12.0,0.,12.0,0.,12.0
1979-03-08 16:16:39.460 ,5,0,0.,12.0,0.,12.0,0.,12.0,0.,12.0
1979-03-08 16:16:51.460 ,4,0,3.,12.0,0.,12.0,0.,12.0,0.,12.0
1979-03-08 16:17:03.460 ,4,0,4.,12.0,0.,12.0,0.,12.0,0.,12.0
1979-03-08 16:17:15.460 ,3,0,3.,12.0,0.,12.0,0.,12.0,0.,12.0
1979-03-08 16:17:27.460 ,3,0,3.,12.0,0.,12.0,0.,12.0,0.,12.0